Location: Unspecified
(40.7945°N, 111.1337°W)
Time: 18:16:18
(UTC-06:00)

Cosmos 1674 - Pass Details

Date: 25 March 2019
Orbit: 497 x 518 km, 82.5° (Epoch: 25 April)

Event Time Altitude Azimuth Distance (km) Brightness Sun altitude
Rises 21:13:32 0° 351° (N) 2,609 6.7 -17.8°
Reaches altitude 10° 21:15:40 10° 351° (N) 1,724 5.7 -18.2°
Maximum altitude 21:19:26 85° 265° (W) 515 2.6 -18.8°
Enters shadow 21:21:27 26° 177° (S) 1,015 3.9 -19.2°
